sat.trackr.live / text

‹ back to catalog

2023-085AD

NORAD 57031 · 2023-085AD

PAYLOAD ACTIVE UNKNOWN

§ Identity

Operator
Country
PRC
Launch date
2023-06-15
Launch site
TAISC
Launch vehicle
Mass (kg)
RCS (m²)

External: N2YO · Heavens-Above · Gunter

§ Orbital elements

Epoch: 2026-09-21T21:27:20.500992Z

Period
93.66 min
Inclination
97.5022°
Eccentricity
0.0009079
Mean motion
15.37401328 rev/d
Perigee alt
447.6 km
Apogee alt
460.0 km
Semi-major
6,831.9 km
B*
3.2136e-4
RAAN
19.3207°
Arg perigee
94.8667°
Mean anomaly
265.3614°
Rev number
18,162

§ Raw data

2023-085AD1 57031U 23085AD  26264.89398728  .00011718  00000+0  32136-3 0  99932 57031  97.5022  19.3207 0009079  94.8667 265.3614 15.37401328181629

JSON: /api/v1/satellites/57031 · /tle

For live sub-satellite position, see the globe view (requires WebGL).

§ Visibility from observer

Set your observer location to see the next 7 days of passes ≥ 10°. The values pass through the URL so the page stays shareable.

No JS? Fill the form by hand. The geolocation button needs JavaScript.